When you browse on this site, cookies collect data to enhance your experience and personalize the content and advertising you see.
Visit our Privacy Policy to learn more. By continuing to use the site, you agree to this use of cookies and data.
  • în România
  • Lista ţărilor
  • Pe 7 zile
  • Temperatura apei
  • Hartă satelitară
  • Meteo pe hartă
  • Widget-uri
  • user-avatar
    Intrare

    Meteo pe oră la San Carlos

    Astăzi, 23 Ianuarie, Miercuri

    Timp Temperatura Precipitaţii Vânt Presiune Umiditate
    00:00 +26°C° 0 mm 2 m/s 747 mmHg 73%
    01:00 +25°C° 0 mm 2 m/s 747 mmHg 74%
    02:00 +25°C° 0 mm 1 m/s 747 mmHg 76%
    03:00 +24°C° 0 mm 1 m/s 747 mmHg 77%
    04:00 +24°C° 0 mm 1 m/s 747 mmHg 79%
    05:00 +24°C° 0 mm 1 m/s 747 mmHg 78%
    06:00 +25°C° 0 mm 1 m/s 748 mmHg 76%
    07:00 +25°C° 0 mm 1 m/s 748 mmHg 75%
    08:00 +28°C° 0 mm 1 m/s 748 mmHg 64%
    09:00 +30°C° 0 mm 2 m/s 748 mmHg 53%
    10:00 +34°C° 0 mm 2 m/s 748 mmHg 42%
    11:00 +35°C° 0 mm 2 m/s 747 mmHg 40%
    12:00 +36°C° 0 mm 2 m/s 747 mmHg 38%
    13:00 +36°C° 0 mm 2 m/s 746 mmHg 35%
    14:00 +36°C° 0 mm 2 m/s 745 mmHg 34%
    15:00 +36°C° 0 mm 2 m/s 745 mmHg 34%
    16:00 +36°C° 0 mm 2 m/s 744 mmHg 33%
    17:00 +34°C° 0 mm 2 m/s 744 mmHg 40%
    18:00 +31°C° 0 mm 2 m/s 744 mmHg 47%
    19:00 +29°C° 0 mm 2 m/s 745 mmHg 54%
    20:00 +29°C° 0 mm 2 m/s 745 mmHg 60%
    21:00 +28°C° 0 mm 2 m/s 746 mmHg 66%
    22:00 +27°C° 0 mm 2 m/s 746 mmHg 72%
    23:00 +26°C° 0 mm 2 m/s 746 mmHg 75%

    Mâine, 24 Ianuarie, Joi

    Timp Temperatura Precipitaţii Vânt Presiune Umiditate
    00:00 +26°C° 0 mm 1 m/s 746 mmHg 78%
    01:00 +25°C° 0 mm 1 m/s 746 mmHg 80%
    02:00 +25°C° 0 mm 1 m/s 746 mmHg 82%
    03:00 +24°C° 0 mm 1 m/s 745 mmHg 83%
    04:00 +24°C° 0 mm 1 m/s 745 mmHg 84%
    05:00 +24°C° 0 mm 1 m/s 746 mmHg 82%
    06:00 +23°C° 0 mm 0 m/s 746 mmHg 79%
    07:00 +23°C° 0 mm 0 m/s 747 mmHg 76%
    08:00 +28°C° 0 mm 1 m/s 747 mmHg 66%
    09:00 +30°C° 0 mm 2 m/s 748 mmHg 56%
    10:00 +33°C° 0 mm 3 m/s 748 mmHg 45%
    11:00 +35°C° 0 mm 3 m/s 747 mmHg 41%
    12:00 +36°C° 0 mm 3 m/s 746 mmHg 37%
    13:00 +37°C° 0 mm 2 m/s 745 mmHg 34%
    14:00 +37°C° 0 mm 2 m/s 744 mmHg 33%
    15:00 +37°C° 0 mm 2 m/s 744 mmHg 33%
    16:00 +37°C° 0 mm 2 m/s 743 mmHg 33%
    17:00 +35°C° 0 mm 2 m/s 743 mmHg 39%
    18:00 +31°C° 0 mm 1 m/s 744 mmHg 46%
    19:00 +29°C° 0 mm 1 m/s 744 mmHg 52%
    20:00 +28°C° 0 mm 1 m/s 745 mmHg 58%
    21:00 +28°C° 0 mm 2 m/s 745 mmHg 64%
    22:00 +27°C° 0 mm 2 m/s 746 mmHg 70%
    23:00 +26°C° 0 mm 2 m/s 746 mmHg 73%

    Poimâine, 25 Ianuarie, Vineri

    Timp Temperatura Precipitaţii Vânt Presiune Umiditate
    00:00 +26°C° 0 mm 1 m/s 745 mmHg 76%
    01:00 +25°C° 0 mm 1 m/s 745 mmHg 80%
    02:00 +25°C° 0 mm 1 m/s 745 mmHg 81%
    03:00 +24°C° 0 mm 1 m/s 745 mmHg 82%
    04:00 +24°C° 0 mm 1 m/s 745 mmHg 83%
    05:00 +25°C° 0 mm 1 m/s 746 mmHg 81%
    06:00 +25°C° 0 mm 1 m/s 746 mmHg 79%
    07:00 +23°C° 0 mm 0 m/s 747 mmHg 77%
    08:00 +28°C° 0 mm 1 m/s 747 mmHg 65%
    09:00 +30°C° 0 mm 2 m/s 747 mmHg 54%
    10:00 +34°C° 0 mm 2 m/s 747 mmHg 42%
    11:00 +35°C° 0 mm 2 m/s 746 mmHg 39%
    12:00 +36°C° 0 mm 2 m/s 745 mmHg 35%
    13:00 +38°C° 0 mm 2 m/s 744 mmHg 32%
    14:00 +36°C° 0 mm 1 m/s 744 mmHg 32%
    15:00 +36°C° 0 mm 1 m/s 743 mmHg 33%
    16:00 +36°C° 0 mm 1 m/s 742 mmHg 33%
    17:00 +34°C° 0 mm 1 m/s 743 mmHg 40%
    18:00 +32°C° 0 mm 2 m/s 743 mmHg 47%
    19:00 +29°C° 0 mm 2 m/s 744 mmHg 54%
    20:00 +28°C° 0 mm 2 m/s 744 mmHg 60%
    21:00 +27°C° 0 mm 2 m/s 745 mmHg 65%
    22:00 +27°C° 0 mm 2 m/s 745 mmHg 71%
    23:00 +26°C° 0 mm 2 m/s 745 mmHg 72%

    26 Ianuarie, Sâmbătă

    Timp Temperatura Precipitaţii Vânt Presiune Umiditate
    00:00 +26°C° 0 mm 2 m/s 745 mmHg 74%
    01:00 +25°C° 0 mm 1 m/s 745 mmHg 75%
    02:00 +25°C° 0 mm 1 m/s 745 mmHg 77%
    03:00 +24°C° 0 mm 1 m/s 744 mmHg 79%
    04:00 +24°C° 0 mm 1 m/s 744 mmHg 81%
    05:00 +24°C° 0 mm 1 m/s 745 mmHg 79%
    06:00 +25°C° 0 mm 1 m/s 746 mmHg 77%
    07:00 +25°C° 0 mm 1 m/s 746 mmHg 75%
    08:00 +28°C° 0 mm 1 m/s 747 mmHg 63%
    09:00 +30°C° 0 mm 2 m/s 747 mmHg 51%
    10:00 +34°C° 0 mm 2 m/s 747 mmHg 40%
    11:00 +35°C° 0 mm 2 m/s 746 mmHg 37%
    12:00 +36°C° 0 mm 2 m/s 745 mmHg 34%
    13:00 +37°C° 0 mm 2 m/s 744 mmHg 31%
    14:00 +36°C° 0 mm 1 m/s 743 mmHg 30%
    15:00 +36°C° 0 mm 1 m/s 742 mmHg 30%
    16:00 +36°C° 0 mm 1 m/s 742 mmHg 29%
    17:00 +34°C° 0 mm 1 m/s 742 mmHg 35%
    18:00 +32°C° 0 mm 1 m/s 743 mmHg 41%
    19:00 +29°C° 0 mm 1 m/s 743 mmHg 47%
    20:00 +28°C° 0 mm 2 m/s 743 mmHg 55%
    21:00 +27°C° 0 mm 2 m/s 744 mmHg 64%
    22:00 +26°C° 0 mm 2 m/s 744 mmHg 72%
    23:00 +26°C° 0 mm 2 m/s 744 mmHg 73%

    27 Ianuarie, Duminică

    Timp Temperatura Precipitaţii Vânt Presiune Umiditate
    00:00 +26°C° 0 mm 2 m/s 744 mmHg 75%
    01:00 +25°C° 0 mm 1 m/s 744 mmHg 76%
    02:00 +25°C° 0 mm 1 m/s 744 mmHg 77%
    03:00 +24°C° 0 mm 1 m/s 744 mmHg 79%
    04:00 +24°C° 0 mm 1 m/s 744 mmHg 80%
    05:00 +25°C° 0 mm 1 m/s 744 mmHg 79%
    06:00 +25°C° 0 mm 1 m/s 745 mmHg 77%
    07:00 +25°C° 0 mm 1 m/s 746 mmHg 75%
    08:00 +28°C° 0 mm 1 m/s 746 mmHg 64%
    09:00 +30°C° 0 mm 2 m/s 746 mmHg 54%
    10:00 +34°C° 0 mm 2 m/s 746 mmHg 43%
    11:00 +35°C° 0 mm 2 m/s 745 mmHg 39%
    12:00 +36°C° 0 mm 2 m/s 744 mmHg 34%
    13:00 +38°C° 0 mm 2 m/s 743 mmHg 30%
    14:00 +38°C° 0 mm 2 m/s 743 mmHg 30%
    15:00 +38°C° 0 mm 2 m/s 742 mmHg 29%
    16:00 +36°C° 0 mm 1 m/s 741 mmHg 29%
    17:00 +34°C° 0 mm 1 m/s 742 mmHg 35%
    18:00 +32°C° 0 mm 1 m/s 742 mmHg 42%
    19:00 +30°C° 0 mm 1 m/s 743 mmHg 48%
    20:00 +29°C° 0 mm 2 m/s 743 mmHg 56%
    21:00 +28°C° 0 mm 2 m/s 744 mmHg 63%
    22:00 +27°C° 0 mm 2 m/s 744 mmHg 71%
    23:00 +27°C° 0 mm 2 m/s 744 mmHg 72%

    28 Ianuarie, Luni

    Timp Temperatura Precipitaţii Vânt Presiune Umiditate
    00:00 +26°C° 0 mm 2 m/s 744 mmHg 73%
    01:00 +26°C° 0 mm 2 m/s 744 mmHg 74%
    02:00 +26°C° 0 mm 1 m/s 744 mmHg 75%
    03:00 +25°C° 0 mm 1 m/s 744 mmHg 76%
    04:00 +25°C° 0 mm 1 m/s 744 mmHg 77%
    05:00 +25°C° 0 mm 1 m/s 744 mmHg 76%
    06:00 +26°C° 0 mm 1 m/s 745 mmHg 74%
    07:00 +26°C° 0 mm 1 m/s 745 mmHg 73%
    08:00 +28°C° 0 mm 1 m/s 745 mmHg 63%
    09:00 +31°C° 0 mm 2 m/s 746 mmHg 53%
    10:00 +34°C° 0 mm 2 m/s 746 mmHg 42%
    11:00 +35°C° 0 mm 2 m/s 745 mmHg 40%
    12:00 +36°C° 0 mm 2 m/s 744 mmHg 37%
    13:00 +37°C° 0 mm 2 m/s 743 mmHg 35%
    14:00 +37°C° 0 mm 2 m/s 742 mmHg 35%
    15:00 +35°C° 0 mm 1 m/s 742 mmHg 36%
    16:00 +35°C° 0 mm 1 m/s 741 mmHg 37%
    17:00 +33°C° 0 mm 1 m/s 742 mmHg 42%
    18:00 +31°C° 0 mm 1 m/s 742 mmHg 47%
    19:00 +30°C° 0 mm 1 m/s 742 mmHg 53%
    20:00 +29°C° 0 mm 2 m/s 743 mmHg 59%
    21:00 +28°C° 0 mm 2 m/s 743 mmHg 65%
    22:00 +27°C° 0 mm 2 m/s 744 mmHg 72%
    23:00 +27°C° 0 mm 2 m/s 743 mmHg 74%
    Arată mai mult